[[{"header":{"parameterUnit":"m.s-1","parameterCategory":1,"la1":30.2991,"la2":30.254,"lo1":-89.0895,"lo2":-89.0444,"dy":0.0017,"dx":0.0017,"nx":28,"ny":28,"refTime":"2023-08-23T09:00:00:Z","depth":0,"parameterNumber":2,"parameterNumberName":"U-component_of_WINDS"},"data":[0,0,0,0,0,0,0,0,0,0,0,0,0,0,0,0,0,0,0,0,0,0,0,0,0,0,0,0,0,0,0,0,0,0,0,0,0,0,0,0,0,0,0,0,0,0,0,0,0,0,0,0,0,0,0,0,0,0,0.8075,0.8076,0,0.8195,0.8196,0.8197,0.8264,0.8264,0.8264,0.8264,0.8384,0.8387,0.8389,0,0,0,0,0,0,0,0,0,0,0,0,0,0.7898,0.7901,0.8075,0.8076,0.8078,0.8194,0.8196,0.8198,0.8264,0.8264,0.8264,0.8264,0.8383,0.8386,0.839,0,0,0,0,0,0,0,0,0,0,0,0,0,0.7992,0.7902,0.8074,0.8125,0.813,0.8194,0.8196,0.8198,0.8264,0.8264,0.8264,0.8264,0.8381,0.8386,0.839,0.8412,0,0,0.8404,0.8406,0,0,0,0,0,0,0,0,0.7987,0.7998,0.8116,0.8121,0.8128,0.8215,0.8178,0.827,0.8263,0.8213,0.8264,0.8265,0.8327,0.8336,0.8358,0.8418,0.8423,0.8404,0.8407,0.8409,0.841,0,0,0,0,0,0,0,0.798,0.7994,0.8122,0.8117,0.8125,0.814,0.8153,0.8195,0.8267,0.8217,0.8222,0.8236,0.833,0.8353,0.8361,0.8425,0.8404,0.8408,0.8411,0.8413,0.8507,0.8507,0,0,0,0,0,0,0.7966,0.7988,0.8118,0.8126,0.8057,0.8143,0.8158,0.8186,0.8266,0.8279,0.8235,0.8239,0.8345,0.8356,0.8365,0.8395,0.8409,0.8413,0.8416,0.8507,0.8507,0.8507,0,0,0,0,0,0,0.7962,0.7977,0.8113,0.8058,0.8077,0.8145,0.8177,0.8189,0.8212,0.828,0.8293,0.8246,0.8346,0.8359,0.84,0.84,0.8415,0.8419,0.8507,0.8507,0.8507,0.8456,0,0,0,0,0,0,0.7957,0.7975,0.7985,0.8058,0.8079,0.8147,0.8177,0.8191,0.822,0.8225,0.8294,0.8305,0.8347,0.8393,0.8404,0.8407,0.8423,0.8508,0.8507,0.8507,0.8458,0.8454,0.845,0,0,0,0,0,0.795,0.7966,0.7986,0.8001,0.8094,0.8147,0.8159,0.8208,0.8219,0.8229,0.8273,0.8303,0.8398,0.8396,0.841,0.8414,0.8508,0.8507,0.8507,0.8459,0.8455,0.845,0,0,0,0,0,0,0.789,0.7976,0.7999,0.8039,0.8085,0.8158,0.8172,0.8202,0.8245,0.8248,0.8306,0.832,0.8355,0.8389,0.8385,0.8438,0.8456,0.8458,0.8415,0.8411,0.8408,0.8399,0.8427,0,0,0,0,0,0.7882,0.792,0.7992,0.802,0.8042,0.8103,0.8128,0.8162,0.8212,0.8231,0.8278,0.8324,0.8365,0.839,0.8431,0.8463,0.8478,0.8472,0.8468,0.8465,0.8466,0.8484,0.8482,0.8505,0.8505,0.8505,0,0,0.7865,0.7916,0.7936,0.8009,0.8049,0.8085,0.8119,0.8156,0.8183,0.8236,0.8278,0.8314,0.8369,0.8405,0.8423,0.8434,0.8463,0.8464,0.8461,0.8464,0.8483,0.8481,0.8479,0.8505,0.8505,0.8505,0,0,0.7852,0.7895,0.7923,0.7962,0.8022,0.8063,0.8069,0.8137,0.8163,0.8206,0.8247,0.8279,0.8347,0.8385,0.8412,0.8412,0.844,0.8424,0.8404,0.8421,0.8419,0.8418,0.8416,0.8415,0.8425,0.8424,0.8424,0,0.7823,0.788,0.7933,0.7968,0.7998,0.8049,0.8076,0.8111,0.8181,0.82,0.8211,0.8298,0.8338,0.8383,0.8383,0.8404,0.8412,0.8416,0.8415,0.8415,0.8414,0.8413,0.8413,0.8422,0.8422,0.8422,0.8423,0,0.784,0.7879,0.7894,0.7961,0.7993,0.8024,0.808,0.8105,0.8136,0.8174,0.8216,0.8266,0.8318,0.8331,0.8361,0.838,0.8384,0.8405,0.8424,0.8408,0.8409,0.8409,0.8418,0.8419,0.842,0.8421,0,0,0.7794,0.7889,0.7894,0.7924,0.7994,0.8024,0.8056,0.8108,0.8128,0.8173,0.8201,0.8257,0.8276,0.8308,0.8342,0.8357,0.8351,0.8375,0.8377,0.8368,0.8373,0.8357,0.8356,0.8371,0.8371,0.8371,0.8368,0,0.779,0.7852,0.79,0.7943,0.7978,0.8027,0.8054,0.8099,0.8135,0.8169,0.8209,0.8248,0.827,0.829,0.8306,0.8348,0.8353,0.8349,0.8395,0.8396,0.8379,0.8356,0.834,0.8335,0.8369,0.8369,0.8369,0,0.7795,0.7839,0.7886,0.7951,0.7967,0.7992,0.8042,0.8074,0.8125,0.815,0.8185,0.8221,0.8255,0.827,0.8317,0.8314,0.8335,0.8359,0.836,0.8365,0.8381,0.836,0.8334,0.8333,0.837,0.837,0.837,0,0.7754,0.7826,0.7863,0.7888,0.7965,0.798,0.8013,0.8064,0.8091,0.8135,0.8153,0.8199,0.8224,0.8258,0.8304,0.8312,0.8346,0.8366,0.8366,0.8365,0.8371,0.837,0.8347,0.8386,0.8386,0.8386,0.8386,0,0.7745,0.7771,0.7846,0.7869,0.7899,0.7953,0.7981,0.8017,0.8062,0.8091,0.8136,0.8162,0.8222,0.8255,0.8291,0.8324,0.8335,0.8355,0.8364,0.8351,0.8348,0.8365,0.8366,0.8386,0.8386,0.8386,0.8386,0,0.7705,0.7757,0.78,0.7869,0.7887,0.7906,0.7964,0.7987,0.8026,0.8062,0.8073,0.8133,0.8174,0.8224,0.828,0.8305,0.8333,0.8348,0.8316,0.8321,0.8319,0.8318,0.8306,0.8306,0.8345,0.8345,0.8344,0,0.7696,0.7717,0.7788,0.7812,0.7843,0.788,0.7908,0.7961,0.7989,0.8047,0.8062,0.8107,0.8145,0.8208,0.8255,0.8298,0.8314,0.8306,0.832,0.8305,0.8312,0.831,0.8311,0.8302,0.8302,0.8301,0.8301,0,0.7673,0.7697,0.7737,0.7785,0.7817,0.7857,0.7899,0.7915,0.7977,0.8004,0.8047,0.8077,0.8135,0.8177,0.8226,0.8258,0.8289,0.8296,0.8298,0.8284,0.8264,0.8274,0.8305,0.8296,0.8296,0.8297,0.8297,0.8297,0.7647,0.7668,0.7721,0.7763,0.78,0.7838,0.7863,0.7904,0.7941,0.7993,0.8022,0.8063,0.8112,0.8181,0.8211,0.8243,0.8255,0.8258,0.8259,0.8259,0.8254,0.826,0.8253,0.8253,0.8253,0.8253,0.8253,0,0.7625,0.7662,0.77,0.7758,0.779,0.7818,0.7865,0.789,0.7926,0.7969,0.8006,0.8054,0.8095,0.8146,0.819,0.8206,0.8221,0.8216,0.8215,0.8221,0.8242,0.8235,0.8203,0.8203,0.8203,0.8203,0.8203,0.8203,0.7618,0.7654,0.7684,0.7738,0.7775,0.7816,0.7841,0.7875,0.791,0.7962,0.7997,0.803,0.8076,0.8123,0.8162,0.8176,0.8189,0.8179,0.8197,0.8215,0.822,0.8224,0.8218,0.8182,0.8182,0.8173,0.8173,0.8173]},{"header":{"parameterUnit":"m.s-1","parameterCategory":1,"la1":30.2991,"la2":30.254,"lo1":-89.0895,"lo2":-89.0444,"dy":0.0017,"dx":0.0017,"nx":28,"ny":28,"refTime":"2023-08-23T09:00:00:Z","depth":0,"parameterNumber":3,"parameterNumberName":"V-component_of_WINDS"},"data":[0,0,0,0,0,0,0,0,0,0,0,0,0,0,0,0,0,0,0,0,0,0,0,0,0,0,0,0,0,0,0,0,0,0,0,0,0,0,0,0,0,0,0,0,0,0,0,0,0,0,0,0,0,0,0,0,0,0,3.2046,3.2046,0,3.2004,3.2003,3.2003,3.1967,3.1967,3.1966,3.1966,3.1918,3.1917,3.1917,0,0,0,0,0,0,0,0,0,0,0,0,0,3.2094,3.2093,3.2046,3.2046,3.2045,3.2004,3.2003,3.2003,3.1967,3.1967,3.1966,3.1966,3.1919,3.1918,3.1916,0,0,0,0,0,0,0,0,0,0,0,0,0,3.2064,3.2093,3.2046,3.2023,3.202,3.2004,3.2003,3.2002,3.1967,3.1967,3.1966,3.1966,3.1919,3.1918,3.1916,3.1919,0,0,3.1912,3.1911,0,0,0,0,0,0,0,0,3.2066,3.2063,3.2027,3.2024,3.2021,3.199,3.2003,3.1974,3.1967,3.1987,3.1966,3.1965,3.1942,3.1939,3.1932,3.1917,3.1915,3.1912,3.1911,3.1911,3.191,0,0,0,0,0,0,0,3.2068,3.2064,3.2029,3.2026,3.2023,3.2013,3.2008,3.1997,3.1968,3.1985,3.1983,3.1978,3.1941,3.1934,3.1931,3.1914,3.1912,3.1911,3.191,3.1909,3.1899,3.19,0,0,0,0,0,0,3.2074,3.2066,3.2031,3.2028,3.2043,3.2013,3.2007,3.2001,3.1968,3.1963,3.1979,3.1977,3.1936,3.1932,3.1929,3.193,3.1911,3.1909,3.1908,3.1899,3.1899,3.19,0,0,0,0,0,0,3.2076,3.2072,3.2032,3.2046,3.2041,3.2013,3.2005,3.2,3.1993,3.1964,3.1958,3.1977,3.1936,3.1931,3.1922,3.1928,3.1909,3.1907,3.1898,3.1899,3.19,3.1933,0,0,0,0,0,0,3.2077,3.2072,3.2073,3.2047,3.204,3.2027,3.2006,3.2,3.1991,3.1988,3.196,3.1955,3.1935,3.1924,3.1921,3.1926,3.1906,3.1897,3.1898,3.1899,3.1931,3.1934,3.1938,0,0,0,0,0,3.2079,3.2083,3.2074,3.207,3.2041,3.2028,3.2024,3.2001,3.1992,3.1992,3.1974,3.1956,3.1928,3.1924,3.1919,3.1924,3.1897,3.1898,3.1899,3.1929,3.1934,3.1937,0,0,0,0,0,0,3.211,3.2079,3.2068,3.2064,3.2049,3.2022,3.2022,3.2007,3.1993,3.199,3.1962,3.1956,3.195,3.1936,3.1932,3.1925,3.191,3.1911,3.1935,3.1938,3.1942,3.1945,3.1905,0,0,0,0,0,3.2116,3.2109,3.2082,3.2081,3.2074,3.205,3.2043,3.2027,3.201,3.2002,3.1983,3.1966,3.1953,3.1945,3.1932,3.1929,3.1922,3.193,3.1934,3.1937,3.1937,3.1935,3.1938,3.1904,3.1904,3.1904,0,0,3.2129,3.2112,3.2108,3.2087,3.2073,3.2065,3.2044,3.2036,3.203,3.2001,3.1992,3.1977,3.1956,3.195,3.1947,3.1938,3.1945,3.1938,3.1941,3.1939,3.1936,3.1939,3.1942,3.1905,3.1905,3.1905,0,0,3.2149,3.2135,3.2133,3.212,3.2101,3.2084,3.2084,3.2059,3.2049,3.204,3.2018,3.201,3.1989,3.1974,3.1964,3.1981,3.1964,3.1977,3.1994,3.1992,3.1995,3.1997,3.2003,3.2005,3.1978,3.1978,3.1978,0,3.2167,3.2155,3.2133,3.2127,3.2119,3.2094,3.2092,3.208,3.2056,3.205,3.2042,3.2016,3.2,3.1991,3.1995,3.1988,3.1986,3.198,3.1997,3.1999,3.2,3.2005,3.2007,3.198,3.198,3.1979,3.1979,0,3.2178,3.217,3.2171,3.2151,3.2142,3.2138,3.2115,3.2109,3.2095,3.2079,3.2071,3.2051,3.2034,3.2031,3.2016,3.202,3.2015,3.2002,3.1986,3.2006,3.201,3.2012,3.1982,3.1982,3.1981,3.1981,0,0,3.2213,3.2183,3.2184,3.2175,3.2152,3.2145,3.214,3.2124,3.212,3.2105,3.2099,3.2083,3.2071,3.206,3.2044,3.2042,3.2057,3.2029,3.2028,3.2035,3.2059,3.2069,3.2072,3.2046,3.2046,3.2046,3.2061,0,3.2229,3.2219,3.2201,3.2196,3.2189,3.2167,3.2162,3.2147,3.2133,3.2124,3.2108,3.2097,3.2082,3.2076,3.2073,3.2055,3.2061,3.2054,3.2039,3.2039,3.2045,3.2074,3.2083,3.2098,3.2063,3.2063,3.2063,0,3.2245,3.2233,3.2229,3.2207,3.2204,3.22,3.2185,3.2177,3.216,3.2149,3.2138,3.2121,3.2114,3.2101,3.209,3.2086,3.2079,3.2069,3.2069,3.2066,3.2052,3.2071,3.2102,3.2104,3.2065,3.2065,3.2065,0,3.2271,3.2254,3.2249,3.2242,3.2217,3.2215,3.2205,3.2187,3.218,3.2166,3.2161,3.2147,3.2138,3.2127,3.2107,3.2099,3.2098,3.2083,3.2089,3.2089,3.2089,3.2089,3.2119,3.2086,3.2086,3.2086,3.2086,0,3.2289,3.2287,3.2261,3.2258,3.2255,3.2234,3.2231,3.2218,3.2204,3.2197,3.2177,3.2171,3.2145,3.2136,3.2119,3.2113,3.2109,3.21,3.2096,3.2102,3.2103,3.2096,3.2094,3.2086,3.2086,3.2086,3.2086,0,3.2317,3.2299,3.2293,3.2271,3.2265,3.2264,3.2245,3.2241,3.2227,3.2219,3.2216,3.2193,3.2181,3.216,3.2142,3.2131,3.2128,3.2121,3.2134,3.2131,3.2138,3.2138,3.2164,3.2166,3.2133,3.2133,3.2133,0,3.2329,3.2328,3.2306,3.2301,3.2292,3.2284,3.2277,3.2256,3.2249,3.2231,3.2229,3.2217,3.2205,3.2188,3.2169,3.2155,3.2147,3.2157,3.2145,3.2151,3.2147,3.2147,3.2146,3.216,3.216,3.2161,3.2161,0,3.2353,3.2345,3.2336,3.2325,3.2317,3.2306,3.2295,3.2291,3.2268,3.2261,3.225,3.2242,3.2225,3.2212,3.2196,3.2184,3.2168,3.2165,3.2166,3.2171,3.2179,3.2175,3.2141,3.2164,3.2164,3.2164,3.2164,3.2164,3.2374,3.2371,3.2357,3.2347,3.2337,3.2327,3.2322,3.2308,3.2299,3.2285,3.2273,3.2263,3.2246,3.2224,3.2213,3.2204,3.2197,3.2197,3.2197,3.2198,3.22,3.2182,3.2201,3.2201,3.2201,3.2201,3.2201,0,3.2396,3.2386,3.2378,3.2363,3.2356,3.2344,3.2331,3.2325,3.2317,3.2304,3.2294,3.2282,3.227,3.2251,3.2238,3.2234,3.2227,3.2232,3.2231,3.2229,3.2208,3.2209,3.2238,3.2238,3.2238,3.2238,3.2238,3.2238,3.2407,3.2403,3.2393,3.2384,3.2373,3.2365,3.2358,3.2349,3.2338,3.2326,3.2317,3.2305,3.2289,3.2275,3.2263,3.2258,3.2254,3.2261,3.2253,3.2233,3.223,3.2227,3.2227,3.226,3.226,3.2274,3.2274,3.2275]}]]